Content
SEND FEEDBACK

Daily
Averages
Monthly
Summary
United States of America

WRIGHTSBORO, NORTH CAROLINA


Home > North America > United States > North Carolina
Elevation: 30 feet     Latitude: 34 18N     Longitude: 077 54W

WEATHER
 
SELECT A DAY
Number of Records: 208,565;   Date Range: 1/1/95 - 7/7/14
 
SHARE

PRINT THIS DATA

[ ← Previous Day ]
WEATHER ALMANAC - JANUARY 17, 2013
[ Next Day → ]
[ °C ]   °F
Weather ElementAverageHighLow
Temperature58.7 °F78.1 °F (12:53 pm)44.1 °F (11:53 pm)
Dewpoint54.6 °F63 °F (3:53 pm)39.9 °F (11:53 pm)
Humidity87.6 %100 % (2:53 am)50 % (12:53 pm)
Barometer29.89 in29.99 in (1:53 am)29.76 in (7:32 pm)
Wind Speed9.4 mph19.6 mph (4:48 pm)
Wind Gust27.6 mph (4:48 pm)
Weather ElementAverage
Visibility6 mi
Wind DirectionSSE (154.3 °)

Weather ElementTotal
Precipitation3.81 in
Heating Degree Days3.9 (Base 65)
Growing Degree Days11.1 (Base 50)
Averaged from 47 records on January 17, 2013
WEATHER CONDITIONS BREAKOUT
WIND DIRECTION BREAKOUT
WEATHER BY HOUR - JANUARY 17, 2013
[ °C ]   °F
Local TimeTemperatureDewpointHumidityBarometerVisibilityWind DirectionWind SpeedGust SpeedPrecipitationEventsConditions
1:53 AM60.8 °F59.0 °F94 %29.99 in8.0 miWest (270°)3.5 mphClear
2:21 AM60.8 °F59.0 °F94 %29.99 in1.8 miCalmClear
2:28 AM60.8 °F57.2 °F88 %29.98 in0.8 miCalmClear
2:35 AM59.0 °F57.2 °F94 %29.98 in0.2 miCalmFogFog
2:53 AM57.9 °F57.9 °F100 %29.98 in0.5 miCalmFogFog
3:23 AM57.2 °F57.2 °F100 %29.97 in1.0 miCalmMist
3:31 AM57.2 °F55.4 °F94 %29.97 in0.8 miSSW (210°)3.5 mphMist
3:35 AM59.0 °F57.2 °F94 %29.97 in1.0 miSSW (200°)3.5 mphClear
3:40 AM59.0 °F57.2 °F94 %29.97 in2.0 miSouth (190°)3.5 mphClear
3:53 AM60.8 °F60.8 °F100 %29.96 in8.0 miSSW (200°)5.8 mphClear
4:53 AM62.1 °F61.0 °F96 %29.96 in10.0 miSSW (200°)6.9 mphClear
5:53 AM64.0 °F61.0 °F90 %29.96 in10.0 miSW (220°)9.2 mphClear
6:53 AM63.0 °F60.1 °F90 %29.97 in10.0 miSSW (210°)6.9 mphClear
7:53 AM63.0 °F60.1 °F90 %29.98 in10.0 miSSW (210°)6.9 mphClear
8:53 AM64.9 °F61.0 °F87 %29.99 in10.0 miSW (220°)8.1 mphClear
9:53 AM69.1 °F61.0 °F75 %29.99 in10.0 miSW (220°)10.4 mphClear
10:53 AM73.0 °F61.0 °F66 %29.96 in10.0 miWSW (240°)10.4 mphClear
11:53 AM75.9 °F60.1 °F58 %29.92 in10.0 miWSW (240°)10.4 mphClear
12:53 PM78.1 °F57.9 °F50 %29.88 in10.0 miSW (220°)11.5 mphPartly Cloudy
1:53 PM78.1 °F57.9 °F50 %29.85 in10.0 miSouth (190°)11.5 mph21.9 mphPartly Cloudy
2:53 PM75.9 °F60.1 °F58 %29.83 in10.0 miSouth (180°)16.1 mph21.9 mphMostly Cloudy
3:53 PM72.0 °F63.0 °F73 %29.82 in10.0 miSE (140°)9.2 mphOvercast
4:41 PM62.6 °F57.2 °F82 %29.81 in10.0 miEast (80°)16.1 mph24.2 mphMostly Cloudy
4:48 PM60.8 °F55.4 °F82 %29.81 in10.0 miEast (90°)19.6 mph27.6 mphMostly Cloudy
4:53 PM59.0 °F55.0 °F87 %29.81 in9.0 miEast (80°)13.8 mph27.6 mph0.00 inRainLight Rain
5:06 PM57.2 °F55.4 °F94 %29.82 in2.5 miEast (90°)9.2 mph20.7 mph0.06 inRainRain
5:13 PM57.2 °F55.4 °F94 %29.82 in6.0 miEast (80°)13.8 mph17.3 mph0.07 inRainLight Rain
5:49 PM55.4 °F55.4 °F100 %29.82 in2.0 miNorth (360°)5.8 mph0.20 inRainRain
5:53 PM55.9 °F54.0 °F93 %29.82 in2.0 miENE (60°)13.8 mph17.3 mph0.21 inRainRain
6:00 PM55.4 °F53.6 °F94 %29.83 in4.0 miEast (90°)15.0 mph20.7 mph0.02 inRainLight Rain
6:07 PM55.4 °F53.6 °F94 %29.83 in9.0 miEast (80°)16.1 mph23.0 mph0.03 inRainLight Rain
6:53 PM55.9 °F53.1 °F90 %29.81 in10.0 miENE (70°)11.5 mph0.03 inOvercast
7:32 PM53.6 °F51.8 °F94 %29.76 in10.0 miENE (60°)15.0 mph0.00 inRainLight Rain
7:48 PM53.6 °F51.8 °F94 %29.80 in2.5 miVariable5.8 mph23.0 mph0.06 inRainHeavy Rain
7:53 PM53.1 °F52.0 °F96 %29.80 in1.2 miNorth (350°)11.5 mph23.0 mph0.21 inRainHeavy Rain
8:01 PM53.6 °F51.8 °F94 %29.83 in1.5 miVariable3.5 mph23.0 mph0.14 inRainHeavy Rain
8:24 PM53.6 °F51.8 °F94 %29.86 in2.0 miNorth (350°)8.1 mph0.39 inRainHeavy Rain
8:45 PM51.8 °F50.0 °F94 %29.85 in2.0 miNE (40°)11.5 mph0.59 inRainHeavy Rain
8:50 PM51.8 °F48.2 °F88 %29.85 in1.8 miNNE (20°)12.7 mph0.65 inRainHeavy Rain
8:53 PM51.1 °F48.9 °F92 %29.85 in1.8 miNNE (30°)12.7 mph0.68 inRainHeavy Rain
9:03 PM50.0 °F48.2 °F94 %29.87 in2.5 miNNE (20°)10.4 mph0.09 inRainHeavy Rain
9:08 PM50.0 °F48.2 °F94 %29.87 in3.0 miNorth (360°)13.8 mph19.6 mph0.10 inRainRain
9:29 PM48.2 °F44.6 °F87 %29.88 in7.0 miNorth (360°)11.5 mph0.14 inRainLight Rain
9:53 PM46.9 °F44.1 °F90 %29.91 in10.0 miNW (310°)10.4 mph0.14 inOvercast
10:18 PM46.4 °F42.8 °F87 %29.90 in10.0 miNorth (10°)13.8 mphOvercast
10:53 PM45.0 °F42.1 °F90 %29.94 in7.0 miNorth (360°)15.0 mph24.2 mph0.00 inRainLight Rain
11:53 PM44.1 °F39.9 °F85 %29.99 in10.0 miNNW (340°)12.7 mph21.9 mph0.00 inOvercast
Hourly data recorded from KILM, located miles away from Wrightsboro, North Carolina







STORIES FROM OUR PARTNERS